Theta_e
319 319 318 317 318 319 318 319 319 317 316 318 318 317 316 311 308 308 307 307 307 306 306 305 305 305 306 305 307 308 306 305 306 305 306 306 305 305 304 303 303 303
320 320 320 319 318 320 319 319 320 318 316 318 318 318 316 311 308 308 308 307 307 307 307 306 306 305 306 305 305 306 305 305 305 305 305 305 305 305 304 304 303 303
320 321 321 321 319 319 320 320 320 319 317 317 318 318 316 311 309 309 308 308 307 307 307 307 307 306 305 306 305 305 305 305 305 305 305 305 305 305 304 304 304 303
319 320 321 322 320 320 321 321 321 320 318 317 318 318 316 311 310 310 309 308 308 308 308 307 307 307 306 306 306 305 305 305 305 304 305 304 304 305 305 304 304 304
318 320 322 322 322 321 322 322 321 320 319 318 318 318 317 313 311 311 310 309 309 308 308 308 308 307 307 307 307 306 306 305 305 305 304 304 304 304 304 304 305 305
321 323 323 322 322 322 323 323 321 320 320 320 319 319 318 314 312 312 311 310 310 309 308 308 308 308 307 308 307 307 307 307 306 305 305 305 304 304 304 304 304 304
323 322 320 319 321 322 323 322 320 320 320 320 319 319 318 315 313 313 312 312 311 310 310 308 308 308 308 308 308 308 308 308 307 306 306 307 305 304 304 304 304 304
321 318 316 316 316 321 324 323 319 319 321 319 318 319 318 315 314 314 313 313 313 313 312 311 310 309 308 308 308 308 308 308 308 307 308 308 306 304 305 305 304 304
320 316 315 315 313 316 321 323 321 320 321 321 319 319 319 317 315 316 314 314 315 315 314 314 313 311 310 309 309 309 309 309 309 308 308 308 306 305 306 306 304 304
322 318 317 320 320 317 317 320 322 321 320 322 322 321 320 319 317 317 317 316 316 316 315 315 314 313 311 310 309 309 309 309 310 309 309 309 307 307 306 305 303 303
322 321 321 322 322 321 321 321 323 322 321 321 323 322 320 319 319 318 318 318 317 316 316 315 314 313 312 311 310 310 310 310 310 310 310 309 308 307 306 305 304 303
319 321 323 323 321 321 323 324 323 322 321 321 323 322 320 320 320 319 319 319 318 318 317 316 315 314 313 312 312 311 310 310 310 310 310 310 309 308 306 305 304 303
314 316 319 320 320 320 321 324 324 323 321 321 322 322 321 319 318 319 319 319 319 318 318 318 316 315 314 313 313 312 311 311 311 310 310 310 309 308 306 305 304 303
310 311 312 314 315 315 314 316 321 324 324 323 321 322 322 320 318 318 319 319 319 319 319 318 317 316 315 314 313 313 312 311 311 310 310 310 309 308 306 305 304 303
309 309 310 311 310 310 309 308 313 319 322 323 323 323 322 322 320 319 319 319 319 319 319 318 318 316 315 314 314 313 312 312 311 310 310 309 308 307 305 304 303 302
309 309 310 311 311 312 311 310 310 314 318 320 322 323 322 322 322 320 320 320 320 320 319 318 318 316 315 314 313 313 312 311 311 311 309 308 307 306 304 303 303 302
309 309 309 310 312 314 315 315 315 316 318 320 321 321 321 321 321 321 321 321 320 320 319 318 317 316 315 314 314 313 312 311 311 310 308 308 306 305 304 303 302 301
307 307 307 308 310 312 314 316 317 318 319 319 320 319 319 319 320 321 321 321 320 318 318 317 316 316 315 314 314 313 312 311 310 308 307 306 305 304 303 302 302 301
307 307 307 308 308 310 312 314 315 316 317 318 318 318 318 318 318 319 320 320 319 318 317 316 316 315 314 313 313 313 312 311 309 306 306 305 304 303 303 302 301 301
307 307 307 308 308 308 309 312 313 314 315 316 316 317 317 317 317 318 318 319 318 317 316 315 314 314 313 313 313 312 311 310 307 305 304 304 303 303 302 301 300 299
308 308 307 308 308 308 308 310 311 314 315 315 314 315 316 316 317 317 317 317 317 317 316 315 314 314 313 312 312 311 310 309 306 305 305 304 303 302 301 300 299 298
308 307 307 307 307 307 308 309 310 312 314 315 314 314 315 315 315 316 317 317 317 316 315 315 314 313 313 312 311 310 309 307 306 305 304 303 302 301 301 300 300 299
308 307 307 307 307 307 308 308 309 311 313 314 314 314 314 314 314 315 316 316 317 315 315 314 313 312 311 310 309 308 307 306 305 304 303 302 302 301 301 301 300 300
307 307 307 306 306 306 307 307 308 309 311 313 313 314 314 313 314 315 314 315 316 315 314 314 313 311 310 309 308 308 307 306 304 302 301 301 301 301 301 301 301 300
307 307 307 307 307 306 307 307 307 309 311 312 312 313 313 313 313 314 314 314 314 314 313 313 311 310 309 308 308 307 306 305 302 300 300 301 300 300 300 300 301 300
306 306 307 307 307 307 306 306 307 308 310 312 312 312 312 312 313 313 313 313 313 313 312 310 309 309 308 307 306 305 305 304 300 297 298 299 300 300 300 300 299 299
Wind_Speed
19 18 18 18 16 15 16 15 14 14 13 12 10 9 8 5 3 4 3 2 2 2 3 3 3 2 2 3 4 4 4 5 6 7 7 8 8 8 8 7 6 6
21 19 18 18 17 16 16 16 16 15 14 14 13 12 10 6 4 5 4 2 2 1 2 2 2 2 2 1 2 3 3 4 4 6 7 8 9 9 9 9 8 7
22 20 19 18 17 17 17 17 16 16 15 15 15 15 12 7 5 5 4 4 4 2 2 1 1 1 2 2 1 1 0 2 3 5 6 7 7 8 9 9 10 10
23 22 20 19 17 17 17 17 17 16 16 16 16 17 14 10 7 6 6 5 6 5 4 3 2 2 2 3 3 2 1 2 2 4 5 5 6 7 7 8 9 9
24 22 21 20 18 17 17 18 18 17 17 17 17 18 16 13 10 9 8 7 7 7 6 5 5 5 4 4 5 4 3 3 3 3 4 5 5 6 6 7 8 9
20 19 19 19 17 17 17 18 17 17 17 17 17 18 18 16 13 12 11 9 9 9 8 8 7 7 7 7 7 6 5 4 5 5 5 6 6 7 7 7 9 10
18 20 21 20 18 17 18 19 19 18 18 18 18 18 19 18 16 15 14 12 12 12 11 11 10 10 9 9 9 8 7 6 7 6 5 6 7 8 9 9 9 8
20 24 24 24 23 20 18 20 20 19 19 19 20 20 21 21 18 18 17 15 14 14 14 13 13 13 12 11 11 11 10 9 9 7 6 7 8 9 9 11 11 10
19 24 23 23 26 26 23 21 20 20 20 19 20 20 21 22 21 20 20 18 17 17 16 16 15 15 15 14 14 14 12 11 10 9 8 9 9 8 7 10 12 12
15 20 21 21 23 25 26 25 22 22 22 20 19 19 20 22 22 22 22 21 20 19 18 18 18 18 18 16 16 16 15 13 12 11 10 10 9 8 8 10 13 13
9 14 18 20 20 20 22 23 22 22 23 22 21 21 22 22 22 23 24 23 23 23 22 22 22 21 21 19 18 18 17 15 14 13 12 11 11 11 11 12 13 13
4 7 12 16 19 21 19 19 19 20 22 23 23 23 23 23 23 23 25 26 26 25 25 24 24 23 22 21 19 19 18 16 15 14 14 13 13 13 14 14 14 13
5 4 6 7 9 12 13 13 15 18 19 20 21 22 23 25 26 25 27 29 28 26 26 25 25 25 23 21 20 19 19 18 17 16 15 15 15 15 15 16 15 15
10 11 12 12 11 11 11 12 13 14 16 18 20 22 22 24 25 26 28 30 29 26 25 25 24 24 23 22 20 19 19 18 18 17 16 16 17 16 16 17 17 16
6 10 12 15 16 15 14 13 12 12 14 16 18 21 22 21 22 26 28 28 27 26 25 25 25 25 24 23 22 21 20 19 19 18 17 17 17 17 18 18 17 17
3 4 5 7 9 9 10 12 12 12 14 15 17 19 21 21 22 24 25 24 24 25 26 27 26 25 26 28 27 24 21 21 21 20 18 17 17 17 17 18 17 17
3 3 4 4 5 6 8 9 10 11 12 14 16 17 18 20 22 23 24 25 25 25 26 28 28 29 31 33 31 27 24 23 22 21 20 18 18 17 16 17 17 16
4 5 5 5 5 6 7 8 9 10 11 12 14 15 16 17 20 21 22 24 27 27 28 30 32 33 35 34 31 28 26 25 23 20 19 18 17 17 15 14 14 13
5 5 6 6 6 6 7 9 9 10 11 12 12 14 14 14 17 20 19 20 25 27 30 33 35 36 36 35 32 28 26 25 20 17 17 16 15 16 15 14 13 14
5 6 6 6 7 8 8 9 10 10 11 11 11 13 13 12 14 15 15 18 21 24 28 33 36 37 36 35 32 28 26 23 17 15 16 15 14 16 17 17 17 16
6 7 8 8 9 9 9 10 11 11 12 12 12 12 13 14 15 15 15 17 20 21 26 32 34 33 33 33 31 28 26 22 18 18 19 18 16 17 18 18 17 16
7 8 9 10 10 10 10 11 11 12 12 13 13 12 13 14 16 17 17 17 18 21 27 32 32 30 30 31 29 26 24 20 19 18 18 17 16 16 16 15 14 14
8 9 9 10 11 11 12 11 12 12 12 13 13 14 14 14 14 16 17 17 19 23 27 30 28 27 30 30 27 24 21 18 16 15 13 13 13 13 12 12 12 14
10 10 11 11 12 12 12 12 13 13 13 13 14 14 15 15 14 15 17 19 21 24 27 28 27 27 30 28 24 22 20 16 13 10 8 9 10 10 11 11 13 15
12 12 13 13 13 13 13 14 14 14 14 15 15 15 16 15 14 15 17 18 20 23 26 27 26 27 29 26 23 21 19 17 14 10 8 9 10 10 10 11 12 14
14 14 14 14 14 15 15 15 15 15 15 15 16 16 16 15 15 15 16 18 21 24 25 24 24 25 26 24 22 20 19 18 15 11 9 9 9 9 10 11 11 12
Wind_Direction
189 191 194 192 190 192 188 181 182 181 174 176 182 184 196 205 188 183 173 138 123 110 113 123 130 131 121 113 107 96 82 70 61 53 50 47 46 44 40 39 34 33
191 192 194 195 192 195 195 188 188 187 179 181 184 185 199 212 205 209 212 196 186 150 131 128 133 150 153 142 121 103 80 63 55 47 44 43 42 40 36 36 34 30
194 195 196 197 197 198 198 193 193 193 187 185 186 188 203 221 218 220 228 227 232 226 207 196 178 199 203 195 194 165 88 37 35 29 33 36 34 33 31 30 28 23
199 200 199 199 200 200 200 197 196 197 194 192 189 191 207 227 228 227 230 230 240 244 238 242 241 241 250 247 252 255 266 319 347 355 7 14 13 18 22 22 23 20
205 206 206 205 203 201 203 202 202 202 200 198 195 195 210 229 233 234 238 232 239 246 241 243 247 252 261 261 262 267 271 289 306 318 330 336 342 349 357 3 6 9
210 212 213 215 214 210 209 206 207 210 207 204 202 201 212 229 235 236 242 240 239 244 244 243 242 246 256 261 265 272 276 280 293 305 307 308 316 326 333 342 349 350
217 218 217 219 223 225 224 219 215 216 214 212 212 211 219 232 235 233 239 243 240 241 243 245 245 243 247 254 258 263 267 270 288 301 290 288 305 315 317 323 336 336
224 226 225 226 226 228 232 229 223 222 222 220 219 219 224 235 238 234 237 239 235 235 236 237 242 244 244 248 249 254 260 263 279 291 272 269 294 307 307 310 321 326
232 234 236 241 239 236 237 237 232 229 228 226 223 221 224 233 235 232 236 236 230 230 231 230 231 237 243 246 245 252 258 258 265 273 269 275 290 294 285 291 307 317
241 242 242 245 245 242 242 244 242 239 238 235 229 224 224 228 228 227 231 231 227 226 227 229 230 234 243 246 244 251 256 258 261 265 268 277 283 277 271 278 293 302
245 253 249 245 244 244 243 240 238 241 244 241 236 233 232 230 227 227 225 221 223 226 227 234 238 237 242 245 244 249 252 252 256 262 267 272 274 277 278 279 284 289
231 251 255 254 253 251 246 241 240 244 247 244 241 239 235 229 225 226 226 221 222 223 224 232 239 239 242 243 242 246 249 249 252 257 263 268 273 282 284 282 283 285
195 223 254 262 258 254 254 259 262 259 254 247 244 243 240 236 232 230 229 228 225 220 218 223 229 233 237 236 234 240 246 247 249 252 258 264 270 277 280 280 282 283
231 251 264 266 269 274 276 278 275 269 262 254 249 246 243 242 241 236 232 230 228 223 217 215 218 224 227 226 227 233 240 243 247 252 255 261 269 275 276 279 282 283
263 268 268 266 269 272 272 274 274 269 265 260 252 247 244 242 242 238 235 231 228 224 217 214 216 215 215 221 224 225 231 241 246 250 252 259 269 276 278 280 284 286
327 298 287 277 275 272 266 269 269 266 264 261 255 251 247 246 244 241 238 231 225 221 217 216 217 212 214 224 229 228 235 244 247 249 251 257 266 271 275 281 286 289
315 298 290 282 282 281 277 274 269 266 263 258 258 255 249 247 245 242 238 230 223 220 219 217 217 217 221 228 233 238 243 244 243 246 250 255 261 265 270 279 286 289
302 295 290 284 281 278 277 273 267 265 260 254 254 255 252 249 244 242 240 235 229 226 221 218 219 224 229 232 235 242 245 243 242 245 249 254 260 263 266 271 276 278
295 292 288 285 282 278 275 271 267 263 257 253 251 251 253 251 244 241 239 237 235 230 224 223 228 235 240 239 237 238 241 240 238 237 243 252 258 261 266 269 268 269
294 291 289 287 285 283 280 274 269 263 256 254 255 254 253 250 243 238 231 230 236 235 230 231 236 242 244 240 236 235 237 235 226 225 238 248 253 260 270 276 275 273
292 292 292 293 292 290 286 280 274 268 260 258 259 256 250 247 244 242 236 231 232 232 229 229 235 241 242 237 232 234 234 229 222 229 243 252 257 265 273 278 277 276
288 293 294 294 295 292 288 284 278 271 264 261 260 255 250 249 247 245 241 233 227 226 226 229 234 238 236 230 227 228 228 224 227 238 250 259 265 270 273 273 271 271
282 289 291 293 296 295 291 288 282 275 268 262 260 255 249 248 246 244 242 235 226 222 223 230 235 231 224 222 222 223 223 224 231 242 252 260 264 265 265 264 265 266
281 283 286 288 290 292 292 289 284 278 270 262 260 256 251 249 246 243 240 235 227 219 220 229 233 223 217 217 220 223 225 226 230 238 246 250 253 257 260 263 268 274
279 282 285 286 285 287 288 287 284 278 269 262 258 256 255 251 245 240 236 229 221 216 220 227 226 216 212 214 218 223 228 229 226 223 231 243 252 259 264 267 271 279
280 282 284 284 284 285 286 286 284 275 266 261 256 255 256 251 244 239 226 211 207 210 217 222 217 209 208 212 217 224 232 238 236 227 230 246 257 261 268 274 277 283